Location: Normandy Village
(37.8755°N, 122.2655°W)
Time: 00:17:07
(UTC+00:00)

Shenzhou-11 Module - Pass Details

Date: 09 December 2019
Orbit: 302 x 315 km, 42.8° (Epoch: 23 January)

Event Time Altitude Azimuth Distance (km) Brightness Sun altitude
Rises 01:52:42 0° 287° (WNW) 2,066 6.7 -12.2°
Reaches altitude 10° 01:54:52 10° 300° (WNW) 1,230 5.2 -12.6°
Maximum altitude 01:57:18 27° 2° (N) 657 3.0 -13.0°
Enters shadow 01:58:04 23° 32° (NNE) 734 3.0 -13.2°
